User: anonymous   Login
Location: Napier
(39.4830°S, 176.9170°E)
Time: 02:26:14
(UTC+13:00)
Language:

SPOT 1/Viking Rocket - Orbit

View from above orbital plane
View from above orbital plane
View from above satellite
View from above satellite

Ground track
Ground track

The orbit data is extracted from the following two-line orbital elements,

1 16615U 86019C   19293.86062373 +.00000013 +00000-0 +21198-4 0  9991
2 16615 098.5105 359.3441 0012465 046.6442 084.0280 14.31769350761850
Epoch (UTC): 20 October 2019 20:39:17
Eccentricity: 0.0012465
inclination: 98.5105°
perigee height: 777 km
apogee height: 795 km
right ascension of ascending node: 359.3441°
argument of perigee: 46.6442°
revolutions per day: 14.31769350
mean anomaly at epoch: 84.0280°
orbit number at epoch: 76185

The dashed part of the orbit path shows where the satellite is in the earth's shadow,  

DLR